Pila San Vigilio, Italy 16 day weather forecast

Slopes altitude range 1200 m - 2750m

Number of lifts: 12 Pistes: 70km

In some cases the lift and piste totals shown are for the ski domain (e.g. Three Valleys) rather than individual resort (e.g. Courchevel)

Overview

The 16 day weather forecast is fully updated 4 times every day.

    • Tue 19 MAR 2019
    • Tue 19
    • -12C -5C
    • Wed 20 MAR 2019
    • Wed 20
    • -10C -3C
    • Thu 21 MAR 2019
    • Thu 21
    • -8C 1C
    • Fri 22 MAR 2019
    • Fri 22
    • -4C 4C
    • Sat 23 MAR 2019
    • Sat 23
    • -2C 5C
    • Sun 24 MAR 2019
    • Sun 24
    • -2C 5C
    • Mon 25 MAR 2019
    • Mon 25
    • -2C 4C
    • Tue 26 MAR 2019
    • Tue 26
    • -3C 4C
    • Wed 27 MAR 2019
    • Wed 27
    • -1C 4C
    • Thu 28 MAR 2019
    • Thu 28
    • -3C 2C
    • Fri 29 MAR 2019
    • Fri 29
    • 1C 7C
    • Sat 30 MAR 2019
    • Sat 30
    • 0C 3C
    • Sun 31 MAR 2019
    • Sun 31
    • -2C 5C
    • Mon 01 APR 2019
    • Mon 01
    • 0C 4C
    • Tue 02 APR 2019
    • Tue 02
    • 0C 4C
    • Wed 03 APR 2019
    • Wed 03
    • -1C 5C

Date:

Time Type 0°C level Temp Chill Snow Cloud Speed Gust Dir Press
3:00 416m -12°C -12_6 0cm 93% 6mph 6mph 1025mB
6:00 331m -13°C -13_6 0cm 68% 6mph 7mph 1026mB
9:00 1163m -12°C -12_3 0cm 0% 3mph 3mph 1025mB
12:00 1568m -5°C -5_4 0cm 0% 4mph 3mph 1024mB
15:00 1656m -4°C -4_4 0cm 17% 4mph 4mph 1024mB
18:00 1126m -4°C -4_4 1cm 29% 4mph 4mph 1027mB
21:00 858m -9°C -9_5 0cm 35% 5mph 5mph 1030mB
0:00 715m -10°C -10_4 0cm 31% 4mph 5mph 1031mB
3:00 639m -11°C -11_4 0cm 8% 4mph 5mph 1032mB
6:00 620m -11°C -11_4 0cm 4% 4mph 5mph 1033mB
9:00 1503m -10°C -10_4 0cm 0% 4mph 3mph 1031mB
12:00 1839m -3°C -3_5 0cm 0% 5mph 4mph 1030mB
15:00 1913m -2°C -2_4 0cm 2% 4mph 3mph 1029mB
18:00 1322m -2°C -2_3 0cm 15% 3mph 4mph 1032mB
21:00 1185m -7°C -7_4 0cm 38% 4mph 4mph 1034mB
0:00 1021m -8°C -8_4 0cm 36% 4mph 5mph 1034mB
3:00 1019m -8°C -8_5 0cm 0% 5mph 6mph 1034mB
6:00 1032m -8°C -8_6 0cm 0% 6mph 6mph 1034mB
9:00 1968m -8°C -8_4 0cm 0% 4mph 4mph 1032mB
12:00 2297m 1°C 1_6 0cm 0% 6mph 5mph 1030mB
15:00 2408m 1°C 1_5 0cm 0% 5mph 5mph 1029mB
18:00 1754m 1°C 1_4 0cm 0% 4mph 5mph 1031mB
21:00 1528m -5°C -5_5 0cm 0% 5mph 5mph 1033mB
0:00 1588m -5°C -5_5 0cm 22% 5mph 6mph 1033mB
3:00 1614m -4°C -4_6 0cm 30% 6mph 6mph 1032mB
6:00 1897m -4°C -4_6 0cm 22% 6mph 6mph 1032mB
9:00 2621m -4°C -4_4 0cm 0% 4mph 4mph 1030mB
12:00 2752m 4°C 4_6 0cm 0% 6mph 6mph 1028mB
15:00 2797m 4°C 4_5 0cm 0% 5mph 5mph 1027mB
18:00 2102m 4°C 4_4 0cm 0% 4mph 4mph 1029mB
21:00 2090m -3°C -3_4 0cm 0% 4mph 5mph 1031mB
0:00 2134m -3°C -3_5 0cm 1% 5mph 6mph 1030mB
3:00 2116m -3°C -3_5 0cm 6% 5mph 5mph 1030mB
6:00 2149m -3°C -3_5 0cm 3% 5mph 5mph 1029mB
9:00 2965m -2°C -2_3 0cm 0% 3mph 3mph 1027mB
12:00 2904m 5°C 5_5 0cm 0% 5mph 4mph 1026mB
15:00 2888m 5°C 5_4 0cm 0% 4mph 4mph 1024mB
18:00 2197m 5°C 5_2 0cm 0% 2mph 3mph 1025mB
21:00 2116m -2°C -2_3 0cm 0% 3mph 4mph 1027mB
0:00 2102m -2°C -2_4 0cm 0% 4mph 5mph 1027mB
3:00 2052m -2°C -2_5 0cm 0% 5mph 5mph 1026mB
6:00 2053m -3°C -3_6 0cm 0% 6mph 6mph 1026mB
9:00 2601m -2°C -2_1 0cm 0% 1mph 2mph 1025mB
12:00 2731m 5°C 5_2 0cm 0% 2mph 2mph 1023mB
15:00 2765m 5°C 5_2 0cm 14% 2mph 3mph 1022mB
18:00 2426m 5°C 5_4 0cm 34% 4mph 5mph 1023mB
21:00 2277m -1°C -1_6 0cm 77% 6mph 7mph 1025mB
0:00 2254m -1°C -1_7 0cm 82% 7mph 7mph 1024mB
3:00 2159m -1°C -1_7 0cm 94% 7mph 7mph 1024mB
6:00 2031m -3°C -3_8 0cm 80% 8mph 8mph 1024mB
9:00 2515m -2°C -2_4 0cm 0% 4mph 4mph 1023mB
12:00 2622m 4°C 4_3 0cm 46% 3mph 2mph 1021mB
15:00 2625m 4°C 4_3 0cm 8% 3mph 3mph 1020mB
18:00 2215m 4°C 4_2 0cm 7% 2mph 3mph 1021mB
21:00 2016m -2°C -2_4 0cm 0% 4mph 5mph 1024mB
0:00 1956m -2°C -2_4 0cm 33% 4mph 5mph 1025mB
3:00 1842m -3°C -3_4 0cm 1% 4mph 5mph 1026mB
6:00 1770m -4°C -4_4 0cm 1% 4mph 4mph 1027mB
9:00 2268m -3°C -3_1 0cm 1% 1mph 3mph 1026mB
12:00 2618m 4°C 4_1 0cm 0% 1mph 4mph 1025mB
15:00 2762m 5°C 5_4 0cm 0% 4mph 6mph 1024mB
18:00 2429m 5°C 5_6 0cm 0% 6mph 7mph 1026mB
21:00 2330m -1°C -1_7 0cm 0% 7mph 7mph 1029mB
0:00 2343m -1°C -1_5 0cm 0% 5mph 5mph 1029mB
3:00 2149m -2°C -2_3 0cm 0% 3mph 3mph 1029mB
6:00 2147m -2°C -2_3 0cm 0% 3mph 4mph 1029mB
9:00 2568m -1°C -1_1 0cm 1% 1mph 1mph 1028mB
12:00 2677m 4°C 4_3 0cm 0% 3mph 1mph 1026mB
15:00 2697m 5°C 5_2 0cm 0% 2mph 2mph 1024mB
18:00 2303m 5°C 5_1 0cm 0% 1mph 2mph 1026mB
21:00 2155m -1°C -1_4 0cm 37% 4mph 5mph 1028mB
0:00 2132m -1°C -1_4 0cm 63% 4mph 5mph 1028mB
3:00 2028m -2°C -2_3 0cm 94% 3mph 3mph 1028mB
6:00 1917m -3°C -3_2 0cm 93% 2mph 2mph 1028mB
9:00 2184m -3°C -3_2 0cm 68% 2mph 1mph 1027mB
12:00 2442m 2°C 2_4 0cm 42% 4mph 2mph 1025mB
15:00 2518m 3°C 3_3 0cm 6% 3mph 2mph 1023mB
18:00 2401m 3°C 3_1 0cm 3% 1mph 1mph 1024mB
Morning 0mm 0 2225m 0°C 0_3 0cm 1% 3mph 3mph 1025mB
Afternoon 0.03125mm 0 2372m 7°C 7_4 0cm 53% 4mph 5mph 1021mB
Morning 0.0989583mm 0 1913m 0°C 0_4 1cm 98% 4mph 5mph 1023mB
Afternoon 0.1875mm 0 1881m 3°C 3_5 2cm 89% 5mph 8mph 1020mB
Morning 0.713542mm 0 1618m -3°C -3_2 6cm 98% 2mph 3mph 1022mB
Afternoon 0.395833mm 0.0625 2199m 5°C 5_2 3cm 96% 2mph 3mph 1019mB
Morning 0.34375mm 0 2091m -1°C -1_5 3cm 89% 5mph 6mph 1021mB
Afternoon 0.5625mm 1.875 2321m 4°C 4_2 0cm 90% 2mph 4mph 1019mB
Morning 1.11458mm 0.25 2096m 1°C 1_7 9cm 99% 7mph 11mph 1022mB
Afternoon 0.354167mm 0.1875 2253m 4°C 4_6 0cm 89% 6mph 10mph 1020mB
Morning 0.015625mm 0 1587m -3°C -3_3 0cm 52% 3mph 4mph 1024mB
Afternoon 0.0260417mm 0.0625 2359m 5°C 5_6 0cm 49% 6mph 9mph 1024mB

16 day outlook at a glance

Forecast issued: 18/03/2019 23:40:54

Chat

Your comments and questions. In a resort? Let us know what it's like!


Characters left 250

For terms and conditions see Readers Comments on the Cookie and privacy policy page.